{"data":{"norad_id":32395,"intl_designator":"2007-065C","name":"COSMOS 2436 (723)","alt_names":[],"object_type":"PAYLOAD","status":"ACTIVE","operator":null,"country":"CIS","launch_date":"2007-12-25","launch_site_code":"TYMSC","launch_vehicle":null,"mission":null,"orbit_class":"UNKNOWN","rcs_meters":5.0238,"size_class":null,"mass_kg":null,"dimensions":null,"purposes":["nav"],"wikipedia_slug":null,"has_3d_model":false,"image_url":null,"decayed_at":null,"tle_current":{"epoch":"2026-05-22T04:14:57.062976Z","epoch_age_seconds":318920,"freshness":"STALE","line1":"1 32395U 07065C   26142.17704934  .00000025  00000+0  00000+0 0  9995","line2":"2 32395  64.3244 192.8648 0017121 356.1086  80.4224  2.13100136143179","mean_motion":2.13100136,"eccentricity":0.0017121,"inclination_deg":64.3244,"raan_deg":192.8648,"arg_perigee_deg":356.1086,"mean_anomaly_deg":80.4224,"bstar":0,"rev_number":14317,"period_min":675.7386583742,"perigee_km":19086.363630862,"apogee_km":19173.708717445,"semimajor_km":25508.173174154,"source":"CELESTRAK","updated_at":"2026-05-25T13:38:23.889665Z"}}}